Location: Arbon
(43.0005°N, 0.7472°E)
Time: 16:29:40
(UTC+00:00)

Cosmos 1513 Rocket - Pass Details

Date: 07 August 2020
Orbit: 939 x 1009 km, 82.9° (Epoch: 22 September)

Event Time Altitude Azimuth Distance (km) Brightness Sun altitude
Exits shadow 00:37:36 82° 285° (WNW) 1,018 4.4 -30.1°
Drops below altitude 10° 00:44:02 10° 6° (N) 2,796 7.8 -29.9°
Sets 00:46:35 0° 8° (N) 3,752 8.8 -29.8°
